Weather History for Tracy, MN

Change the Weather History Date:

Wednesday, October 2, 2013

  Actual Average (KMML) Record (KMML)
Temperature  
Mean Temperature 65 °F -  
Max Temperature 82 °F 67 °F 90 °F (1953)
Min Temperature 49 °F 41 °F 18 °F (1981)
Growing Degree Days 15 (Base 50)    
Moisture  
Dew Point 43 °F    
Average Humidity 51    
Maximum Humidity 95    
Minimum Humidity 21    
Precipitation  
Precipitation 0.48 in - - ()
Sea Level Pressure  
Sea Level Pressure 29.92 in    
Wind  
Wind Speed 6 mph (South)    
Max Wind Speed 24 mph    
Max Gust Speed 31 mph    
Visibility 10 miles    
Events Rain , Thunderstorm    
Averages and records for this station are not official NWS values.
T = Trace of Precipitation, MM = Missing Value Source: NWS Daily Summary

Daily Weather History Graph

Daily Weather History Graph

Search for Another Location

Airport:

Trip Planner

Search our weather history database for the weather conditions in past years. The results will help you decide how hot, cold, wet, or windy it might be!

Date:

Astronomy

Oct. 02, 2013 Rise Set
Actual Time 7:21 AM CDT 7:00 PM CDT
Civil Twilight 6:52 AM CDT 7:29 PM CDT
Nautical Twilight 6:19 AM CDT 8:03 PM CDT
Astronomical Twilight 5:45 AM CDT 8:37 PM CDT
Moon 4:51 AM CDT (10/2) 5:40 PM CDT (10/2)
Length of Visible Light 12h 36m
Length of Day
11h 39m
Waning Crescent, 6% of the Moon is Illuminated
Oct 2
Waning Crescent
Oct 4
New
Oct 11
First Quarter
Oct 18
Full
Oct 26
Last Quarter

Hourly Weather History & Observations

Time (CDT) Temp. Heat Index Dew Point Humidity Pressure Visibility Wind Dir Wind Speed Gust Speed Precip Events Conditions
12:17 AM 56.8 °F - 33.1 °F 41% 30.02 in 10.0 mi Calm Calm - N/A   Clear
12:38 AM 57.0 °F - 33.6 °F 41% 30.02 in 10.0 mi Calm Calm - N/A   Clear
12:58 AM 54.7 °F - 33.8 °F 45% 30.02 in 10.0 mi Calm Calm - N/A   Clear
1:18 AM 55.2 °F - 34.0 °F 45% 30.01 in 10.0 mi Calm Calm - N/A   Clear
1:38 AM 53.6 °F - 33.8 °F 47% 30.02 in 10.0 mi Calm Calm - N/A   Clear
1:58 AM 54.9 °F - 35.1 °F 47% 30.02 in 10.0 mi Calm Calm - N/A   Clear
2:17 AM 53.2 °F - 35.8 °F 52% 30.02 in 10.0 mi Calm Calm - N/A   Clear
2:38 AM 51.8 °F - 36.5 °F 56% 30.02 in 10.0 mi Calm Calm - N/A   Clear
2:58 AM 50.5 °F - 36.3 °F 58% 30.02 in 10.0 mi Calm Calm - N/A   Clear
3:18 AM 50.2 °F - 36.5 °F 59% 30.02 in 10.0 mi Calm Calm - N/A   Clear
3:38 AM 49.5 °F - 36.9 °F 62% 30.01 in 10.0 mi Calm Calm - N/A   Clear
3:58 AM 49.5 °F - 36.7 °F 61% 30.01 in 10.0 mi Calm Calm - N/A   Clear
4:18 AM 50.0 °F - 36.7 °F 60% 30.01 in 10.0 mi Calm Calm - N/A   Clear
4:38 AM 50.5 °F - 36.1 °F 58% 30.01 in 10.0 mi Calm Calm - N/A   Clear
4:57 AM 51.6 °F - 35.4 °F 54% 30.01 in 10.0 mi Calm Calm - N/A   Clear
5:17 AM 52.9 °F - 34.7 °F 50% 30.01 in 10.0 mi Calm Calm - N/A   Clear
5:37 AM 55.0 °F - 33.8 °F 45% 30.01 in 10.0 mi Calm Calm - N/A   Clear
5:58 AM 54.5 °F - 33.8 °F 46% 30.01 in 10.0 mi Calm Calm - N/A   Clear
6:18 AM 53.6 °F - 34.0 °F 47% 30.01 in 10.0 mi Calm Calm - N/A   Clear
6:37 AM 53.6 °F - 34.0 °F 47% 30.01 in 10.0 mi Calm Calm - N/A   Clear
6:58 AM 53.6 °F - 34.0 °F 47% 30.01 in 10.0 mi Calm Calm - N/A   Clear
7:18 AM 53.6 °F - 34.0 °F 47% 30.01 in 10.0 mi Calm Calm - N/A   Clear
7:37 AM 53.6 °F - 34.3 °F 48% 30.01 in 10.0 mi Calm Calm - N/A   Clear
7:57 AM 53.6 °F - 34.9 °F 49% 30.01 in 10.0 mi Calm Calm - N/A   Clear
8:18 AM 55.8 °F - 35.6 °F 47% 30.01 in 10.0 mi Calm Calm - N/A   Clear
8:38 AM 57.2 °F - 35.8 °F 45% 30.00 in 10.0 mi SSE 8.1 mph - N/A   Clear
8:58 AM 58.5 °F - 35.1 °F 42% 30.00 in 10.0 mi SSE 9.2 mph - N/A   Clear
9:18 AM 60.6 °F - 34.9 °F 38% 30.00 in 10.0 mi SSE 10.4 mph 16.1 mph N/A   Clear
9:38 AM 61.7 °F - 34.5 °F 36% 30.00 in 10.0 mi SSE 12.7 mph 18.4 mph N/A   Clear
9:58 AM 62.4 °F - 34.5 °F 35% 30.00 in 10.0 mi SE 12.7 mph 17.3 mph N/A   Clear
10:17 AM 67.1 °F - 34.7 °F 30% 30.00 in 10.0 mi SSE 12.7 mph 16.1 mph N/A   Scattered Clouds
10:37 AM 70.0 °F - 32.5 °F 25% 29.99 in 10.0 mi SE 17.3 mph 23.0 mph N/A   Scattered Clouds
10:58 AM 71.6 °F - 32.0 °F 23% 29.98 in 10.0 mi SSE 20.7 mph 29.9 mph N/A   Scattered Clouds
11:18 AM 72.1 °F - 31.8 °F 23% 29.97 in 10.0 mi SSE 23.0 mph 28.8 mph N/A   Scattered Clouds
11:38 AM 72.9 °F - 31.8 °F 22% 29.96 in 10.0 mi SSE 19.6 mph 27.6 mph N/A   Clear
11:58 AM 73.8 °F - 31.8 °F 21% 29.96 in 10.0 mi SSE 18.4 mph 26.5 mph N/A   Clear
12:18 PM 75.4 °F - 32.2 °F 21% 29.95 in 10.0 mi SSE 21.9 mph 28.8 mph N/A   Clear
12:37 PM 75.2 °F - 33.3 °F 22% 29.94 in 10.0 mi SSE 21.9 mph 31.1 mph N/A   Scattered Clouds
12:58 PM 75.2 °F - 35.8 °F 24% 29.93 in 10.0 mi SSE 24.2 mph 29.9 mph N/A   Mostly Cloudy
1:18 PM 77.2 °F - 37.0 °F 23% 29.91 in 10.0 mi SSE 24.2 mph 29.9 mph N/A   Scattered Clouds
1:37 PM 77.2 °F - 38.7 °F 25% 29.89 in 10.0 mi SSE 19.6 mph 31.1 mph N/A Thunderstorm Clear
1:58 PM 77.9 °F - 40.5 °F 26% 29.88 in 10.0 mi SSE 19.6 mph 25.3 mph N/A   Clear
2:17 PM 77.4 °F - 41.0 °F 27% 29.87 in 10.0 mi SSE 19.6 mph 24.2 mph N/A   Mostly Cloudy
2:38 PM 79.7 °F - 43.9 °F 28% 29.85 in 10.0 mi SSE 18.4 mph 24.2 mph N/A   Scattered Clouds
2:58 PM 80.6 °F - 45.7 °F 29% 29.83 in 10.0 mi SSE 20.7 mph 28.8 mph N/A   Clear
3:18 PM 81.0 °F - 47.1 °F 30% 29.82 in 10.0 mi SSE 17.3 mph 27.6 mph N/A   Clear
3:38 PM 81.1 °F - 48.9 °F 32% 29.81 in 10.0 mi South 21.9 mph 29.9 mph N/A   Clear
3:57 PM 81.9 °F - 51.8 °F 35% 29.81 in 10.0 mi South 18.4 mph 28.8 mph N/A   Clear
4:18 PM 81.3 °F 80.8 °F 54.1 °F 39% 29.80 in 10.0 mi South 17.3 mph 27.6 mph N/A   Scattered Clouds
4:38 PM 80.1 °F 80.1 °F 55.2 °F 42% 29.79 in 10.0 mi South 15.0 mph 26.5 mph N/A   Mostly Cloudy
4:58 PM 81.5 °F 81.3 °F 56.7 °F 42% 29.79 in 10.0 mi South 11.5 mph 25.3 mph N/A   Mostly Cloudy
5:17 PM 81.1 °F 81.4 °F 58.5 °F 46% 29.79 in 10.0 mi South 12.7 mph 20.7 mph N/A   Overcast
5:38 PM 80.6 °F 81.2 °F 59.7 °F 49% 29.79 in 10.0 mi SSW 15.0 mph 21.9 mph N/A   Overcast
5:58 PM 79.7 °F - 60.8 °F 52% 29.78 in 10.0 mi SSW 11.5 mph 20.7 mph N/A   Overcast
6:18 PM 79.0 °F - 61.0 °F 54% 29.78 in 10.0 mi South 11.5 mph 18.4 mph N/A   Mostly Cloudy
6:38 PM 74.1 °F - 62.8 °F 68% 29.79 in 10.0 mi South 16.1 mph 24.2 mph N/A Thunderstorm Thunderstorm
6:58 PM 71.8 °F - 61.9 °F 71% 29.80 in 10.0 mi South 10.4 mph 17.3 mph N/A Thunderstorm Thunderstorm
7:18 PM 71.6 °F - 62.1 °F 72% 29.80 in 10.0 mi South 10.4 mph - N/A   Mostly Cloudy
7:37 PM 70.7 °F - 61.3 °F 72% 29.82 in 10.0 mi NW 6.9 mph - N/A Thunderstorm Mostly Cloudy
7:57 PM 65.1 °F - 52.3 °F 63% 29.83 in 10.0 mi NW 8.1 mph - N/A Thunderstorm Thunderstorm
8:18 PM 64.4 °F - 52.2 °F 64% 29.84 in 10.0 mi Calm Calm - N/A Thunderstorm Overcast
8:38 PM 61.7 °F - 54.3 °F 77% 29.85 in 10.0 mi Calm Calm - 0.03 in Rain , Thunderstorm Thunderstorms and Rain
8:51 PM 59.9 °F - 56.7 °F 89% 29.84 in 7.0 mi North 5.8 mph - 0.07 in Rain , Thunderstorm Light Thunderstorms and Rain
9:18 PM 60.1 °F - 58.1 °F 93% 29.84 in 7.0 mi Calm Calm - 0.41 in Thunderstorm Thunderstorm
9:38 PM 59.5 °F - 57.7 °F 94% 29.87 in 7.0 mi Calm Calm - 0.41 in Thunderstorm Overcast
9:58 PM 58.1 °F - 56.3 °F 94% 29.86 in 10.0 mi Calm Calm - 0.41 in   Mostly Cloudy
10:17 PM 58.1 °F - 56.3 °F 94% 29.87 in 10.0 mi Calm Calm - N/A   Mostly Cloudy
10:37 PM 57.6 °F - 55.8 °F 94% 29.86 in 10.0 mi NNW 5.8 mph - N/A   Scattered Clouds
10:58 PM 57.2 °F - 55.4 °F 94% 29.85 in 7.0 mi NNW 9.2 mph - N/A   Mostly Cloudy
11:18 PM 56.3 °F - 54.7 °F 94% 29.85 in 7.0 mi NNW 9.2 mph - N/A   Overcast
11:38 PM 55.6 °F - 54.1 °F 95% 29.86 in 7.0 mi NW 9.2 mph - N/A   Overcast
11:57 PM 55.0 °F - 53.6 °F 95% 29.85 in 7.0 mi NW 8.1 mph - N/A   Overcast